Location: La Pernelle
(49.6188°N, 1.2999°W)
Time: 10:33:27
(UTC+00:00)

Meteor 2-20 - Pass Details

Date: 24 October 2021
Orbit: 939 x 958 km, 82.5° (Epoch: 08 December)

Event Time Altitude Azimuth Distance (km) Brightness Sun altitude
Rises 04:11:15 0° 143° (SE) 3,609 7.8 -24.8°
Reaches altitude 10° 04:14:19 10° 128° (SE) 2,666 7.3 -24.3°
Maximum altitude 04:18:42 21° 82° (E) 1,981 6.9 -23.6°
Drops below altitude 10° 04:23:06 10° 35° (NE) 2,671 7.4 -22.9°
Sets 04:26:10 0° 21° (NNE) 3,618 7.9 -22.4°
